Change the Weather History Date:

Saturday, December 8, 2012

  Actual Average Record
Temperature  
Mean Temperature 73 °F 56 °F  
Max Temperature 83 °F 66 °F 83 °F (2007)
Min Temperature 62 °F 46 °F 25 °F (1927)
Degree Days  
Heating Degree Days 0 10  
Month to date heating degree days 6 77  
Since 1 July heating degree days 174 262  
Cooling Degree Days 8    
Growing Degree Days 23 (Base 50)    
Moisture  
Dew Point 65 °F    
Average Humidity 74    
Maximum Humidity 100    
Minimum Humidity 47    
Precipitation  
Precipitation 0.00 in 0.13 in 1.95 in (1896)
Month to date precipitation 0.15 1.07  
Year to date precipitation 39.62 47.10  
Sea Level Pressure  
Sea Level Pressure 29.88 in    
Wind  
Wind Speed 3 mph (South)    
Max Wind Speed 14 mph    
Max Gust Speed 20 mph    
Visibility 10 miles    
Events Fog , Rain    
T = Trace of Precipitation, MM = Missing Value Source: NWS Daily Summary

Daily Weather History Graph

Daily Weather History Graph

Search for Another Location

Airport or City:

Trip Planner

Search our weather history database for the weather conditions in past years. The results will help you decide how hot, cold, wet, or windy it might be!

Date:

Astronomy

Dec. 08, 2012 Rise Set
Actual Time 7:04 AM CST 5:22 PM CST
Civil Twilight 6:38 AM CST 5:48 PM CST
Nautical Twilight 6:08 AM CST 6:18 PM CST
Astronomical Twilight 5:39 AM CST 6:47 PM CST
Moon 1:49 AM CST (12/8) 1:36 PM CST (12/8)
Length of Visible Light 11h 10m
Length of Day
10h 18m
Waning Crescent, 28% of the Moon is Illuminated
Dec 8
Waning Crescent
Dec 13
New
Dec 19
First Quarter
Dec 28
Full
Jan 4
Last Quarter

Hourly Weather History & Observations

Time (CST) Temp. Heat Index Dew Point Humidity Pressure Visibility Wind Dir Wind Speed Gust Speed Precip Events Conditions
12:53 AM 66.9 °F - 64.9 °F 93% 29.88 in 10.0 mi Calm Calm - N/A   Mostly Cloudy
1:53 AM 66.9 °F - 64.9 °F 93% 29.87 in 10.0 mi SSE 3.5 mph - N/A   Mostly Cloudy
2:53 AM 66.9 °F - 64.9 °F 93% 29.86 in 10.0 mi Calm Calm - N/A   Mostly Cloudy
3:53 AM 64.9 °F - 63.0 °F 93% 29.87 in 10.0 mi Calm Calm - N/A Fog Patches of Fog
4:08 AM 64.4 °F - 62.6 °F 94% 29.85 in 2.0 mi Calm Calm - N/A   Mostly Cloudy
4:25 AM 64.4 °F - 62.6 °F 94% 29.85 in 5.0 mi Calm Calm - N/A   Mostly Cloudy
4:35 AM 64.4 °F - 64.4 °F 100% 29.85 in 10.0 mi Calm Calm - N/A Fog Patches of Fog
4:53 AM 64.4 °F - 64.4 °F 100% 29.85 in 10.0 mi Calm Calm - N/A Fog Patches of Fog
5:49 AM 66.2 °F - 64.4 °F 94% 29.87 in 10.0 mi Calm Calm - N/A Fog Patches of Fog
5:53 AM 66.0 °F - 64.9 °F 96% 29.88 in 10.0 mi Calm Calm - N/A Fog Patches of Fog
6:53 AM 66.9 °F - 66.0 °F 97% 29.91 in 9.0 mi Calm Calm - 0.03 in Rain Light Rain
7:11 AM 68.0 °F - 66.2 °F 94% 29.89 in 10.0 mi Calm Calm - 0.00 in   Mostly Cloudy
7:53 AM 68.0 °F - 66.0 °F 93% 29.92 in 10.0 mi Calm Calm - 0.00 in   Mostly Cloudy
8:14 AM 69.8 °F - 66.2 °F 88% 29.91 in 10.0 mi Calm Calm - N/A   Mostly Cloudy
8:53 AM 71.1 °F - 68.0 °F 90% 29.93 in 10.0 mi SW 4.6 mph - N/A   Mostly Cloudy
9:53 AM 75.0 °F - 69.1 °F 82% 29.94 in 10.0 mi Variable 3.5 mph - N/A   Mostly Cloudy
10:53 AM 77.0 °F - 68.0 °F 74% 29.93 in 10.0 mi South 11.5 mph - N/A   Mostly Cloudy
11:53 AM 81.0 °F 83.0 °F 66.0 °F 60% 29.90 in 10.0 mi SSW 9.2 mph - N/A   Mostly Cloudy
12:53 PM 82.0 °F 82.7 °F 61.0 °F 49% 29.87 in 10.0 mi SSW 15.0 mph 19.6 mph N/A   Mostly Cloudy
1:53 PM 82.9 °F 84.0 °F 63.0 °F 51% 29.85 in 10.0 mi SSE 15.0 mph - N/A   Mostly Cloudy
2:53 PM 81.0 °F 82.5 °F 64.0 °F 56% 29.84 in 10.0 mi SSE 9.2 mph 19.6 mph N/A   Mostly Cloudy
3:53 PM 79.0 °F - 63.0 °F 58% 29.84 in 10.0 mi South 13.8 mph - N/A   Mostly Cloudy
4:53 PM 77.0 °F - 64.9 °F 66% 29.85 in 10.0 mi SSE 13.8 mph 19.6 mph N/A   Mostly Cloudy
5:53 PM 73.9 °F - 66.0 °F 76% 29.85 in 10.0 mi SSE 11.5 mph - N/A   Mostly Cloudy
6:53 PM 73.0 °F - 66.9 °F 81% 29.87 in 10.0 mi SSE 8.1 mph - N/A   Mostly Cloudy
7:53 PM 71.1 °F - 66.9 °F 87% 29.88 in 10.0 mi SSE 5.8 mph - N/A   Mostly Cloudy
8:53 PM 70.0 °F - 66.9 °F 90% 29.89 in 10.0 mi South 4.6 mph - N/A   Scattered Clouds
9:53 PM 69.1 °F - 66.0 °F 90% 29.89 in 10.0 mi SSE 4.6 mph - N/A   Mostly Cloudy
10:53 PM 69.1 °F - 66.9 °F 93% 29.90 in 10.0 mi SSE 3.5 mph - N/A   Mostly Cloudy
11:53 PM 68.0 °F - 66.9 °F 96% 29.89 in 10.0 mi SSE 4.6 mph - N/A   Mostly Cloudy